User: anonymous   Login
Location: Unspecified
(0.0000°N, 0.0000°E)
Time: 05:51:11
(UTC+00:00)
Language:

Intelsat 706 - Orbit

View from above orbital plane
View from above orbital plane
View from above satellite
View from above satellite

Ground track
Ground track

The orbit data is extracted from the following two-line orbital elements,

1 23571U 95023A   18293.61112726 -.00000021  00000-0  00000+0 0  9999
2 23571   5.3719  62.5492 0001872 169.5665  44.8351  0.99052107 85583
Epoch (UTC): 20 October 2018 14:40:01
Eccentricity: 0.0001872
inclination: 5.3719°
perigee height: 36123 km
apogee height: 36139 km
right ascension of ascending node: 62.5492°
argument of perigee: 169.5665°
revolutions per day: 0.99052107
mean anomaly at epoch: 44.8351°
orbit number at epoch: 8558

The dashed part of the orbit path shows where the satellite is in the earth's shadow,  

DLR